Regional Weather Roundup
Issued by NWS

Home | Current Version | Previous Version | Text Only | Print | Product List | Glossary On
Versions: 1 2 3 4 5 6 7 8 9 10 11 12 13 14 15 16 17 18 19 20 21 22 23 24 25 26 27 28 29 30 31 32 33 34 35 36 37 38 39 40 41 42 43 44 45 46 47 48 49 50
000
ASUS43 KFSD 191802
RWRSD

WEATHER ROUNDUP FOR SOUTH DAKOTA
NATIONAL WEATHER SERVICE SIOUX FALLS SD
100 PM CDT THU APR 19 2018

NOTE: "FAIR" INDICATES FEW OR NO CLOUDS BELOW 12,000 FEET WITH NO
SIGNIFICANT WEATHER AND/OR OBSTRUCTIONS TO VISIBILITY.


SDZ001>005-009-010-012>017-191900-
NORTHWEST AND NORTH CENTRAL SOUTH DAKOTA

CITY           SKY/WX    TMP DP  RH WIND       PRES   REMARKS
BUFFALO          N/A     54  31  41 SE15G26   30.23S
FAITH            N/A     50  36  58 SE13      30.34F
MOBRIDGE       SUNNY     52  26  36 S8        30.38F
$$

SDZ012>016-024>037-041>051-057-063-072>074-191900-
SOUTHWEST AND SOUTH CENTRAL SOUTH DAKOTA

CITY           SKY/WX    TMP DP  RH WIND       PRES   REMARKS
RAPID CTY ARPT MOSUNNY   53  30  41 S14G24    30.30F
PIERRE         SUNNY     49  30  48 SE8       30.40F
CUSTER         MOSUNNY   45  24  43 SE13G20   30.27F
ELLSWORTH AFB  MOSUNNY   54  29  39 S20G28    30.29F
PHILIP         SUNNY     53  33  46 SE13G21   30.35F
PINE RIDGE     PTSUNNY   55  31  39 S12G23    30.31F
SPEARFISH      FAIR      55  25  30 E15       30.23F
WINNER         FAIR      43  29  57 S12       30.43F
$$

SDZ004>011-016>023-039-040-191900-
NORTHEAST SOUTH DAKOTA

CITY           SKY/WX    TMP DP  RH WIND       PRES   REMARKS
ABERDEEN       SUNNY     53  31  42 VRB6      30.44F
WATERTOWN      SUNNY     47  27  45 W8        30.45F
BROOKINGS      SUNNY     46  23  40 SW5       30.49R
SISSETON         N/A     53  32  44 W9        30.44F
$$

SDZ017-020-022-023-036>040-048>070-191900-
SOUTHEAST SOUTH DAKOTA

CITY           SKY/WX    TMP DP  RH WIND       PRES   REMARKS
SIOUX FALLS    MOSUNNY   43  26  51 NW5       30.50S
HURON          SUNNY     42  29  59 S8        30.48F
CHAMBERLAIN    SUNNY     47  31  53 S9        30.45F
MITCHELL       SUNNY     41  32  70 W3        30.50S
YANKTON        SUNNY     46  28  49 CALM      30.50S
$$

ABBREVIATIONS USED IN REMARKS
   TC - TEMPERATURE IN CELSIUS
  WCI - WIND CHILL INDEX
   HX - HEAT INDEX
  VSB - VISIBILITY





USA.gov is the U.S. government's official web portal to all federal, state and local government web resources and services.